IRIDIUM 69 1 25319U 98026A 21110.77926508 .00000118 00000-0 31912-4 0 9994 2 25319 86.4042 15.1770 0002654 33.9138 326.2230 14.38906112204617 IRIDIUM 71 1 25320U 98026B 21110.79107370 .00000134 00000-0 36801-4 0 9996 2 25320 86.4023 10.3953 0004051 68.0211 292.1417 14.39301392205093